ARIANE 5 R/B, 45248

Orbit data source: Space-Track

ARIANE 5 R/B, 45248 is space debris in HEO originally from a launch on Tue, 18 Feb 2020 UTC launched from the French Guiana (FRGUI). Debris objects in space refer to the collection of defunct objects orbiting the Earth. Examples of debris include non-operational satellites, rocket bodies, and fragments generated from explosions, collisions, or faulty payload assembly.

Loading next visibility...
ARIANE 5 R/B details
Identifier
45248, 2020-013D
Orbit
HEO
Last TLE update16 hours ago
Origin
Flag of FRArianespace (FR)
ManufacturerArianeGroup
MissionSpacecraft
Bus & MotorESC-A, Unknown motor
Mass~5,000 kg wet, ~5,000 kg dry
Launch date (UTC)
2020-02-18 (5 years ago)
Launch vehicleUnknown
Launch site
French Guiana (FRGUI)
Object type
Payload
Rocket body
Debris
Shape & HBRCyl + 1 Nozzle, 7 m
Radar Cross Section41.627 m², Large (>1 m²)

Expand to show TLE details & history

TLE from 16 hours ago
0 ARIANE 5 R/B
1 45248U 20013D   24339.73998196  .00001494  00000-0  71257-3 0  9995
2 45248   5.6486 285.6772 7170896 214.9404  65.2762  2.40582168 40944
Epoch: 2024-12-04T17:45Z
Definitive object data (Epoch: 2024-12-04T17:45:34.441Z)
Latitude0.00007°
Longitude-54.51581°
Altitude21,512.955 km
Speed3.412 km/s
True Right ascension19h 03m 38s
True Declination0° 00' 00"
Sunlit
Object was in daylight at TLE epoch
Visualization TLE readout
Latitude4.88219°
Longitude4.29663°
Altitude26,752.689 km
Speed2.668 km/s
Apparent Right ascension22h 33m 29s
Apparent Declination-1° 59' 31"
Sunlit
Object is in daylight
Visualization observer readout
Local Sidereal Time07:20:50
Azimuth298.309° NW
Elevation-32.248°
Doppler factor1
Orbital elements
Apogee altitude34,028.561 km
Perigee altitude279.334 km
Semi-major axis23,532.085 km
Eccentricity0.7170896
Inclination5.6486°
RAAN285.6772°
Arg. of periapsis214.9404°
True anomaly145.38146°
Mean anomaly65.2762°
Eccentric anomaly104.96831°
Mean motion0.60125 °/min
BSTAR0.00071257
Orbital period598.76 mins
Loading maneuver chart data...
Loading historical data...
Loading historical data...
Loading historical data...
Loading historical data...
Loading historical data...
Loading historical data...
Loading historical data...
Other satellites on launch #13 in the year 2020 (2020-02-18 UTC)

ARIANE 5 R/B Visibility forecast

Observer location: undefined°, undefined

Span
Click to sort rows by Start time (UTC) header in descending order
Start Az.
Max El. time (UTC)
Max El. Az.
Max El.
End time (UTC)
End Az.
408 mins2024-12-05 22:50:37.442Z238.368° WSW2024-12-06 00:43:37.442Z233.909° WSW25.048°2024-12-06 05:38:37.442Z257.898° W
34 mins2024-12-06 06:57:37.442Z249.764° W2024-12-06 07:22:37.442Z230.119° WSW12.176°2024-12-06 07:31:37.442Z209.714° SW
|